Starlink 1928

operational
NORAD ID: 46758 Int'l Des: 2020-074 Owner: SPXS Country: US Constellation: starlink
LEOCIRCULARSTARLINK_TYPE

关于 Starlink 1928

正在加载描述...

实时位置

正在加载3D地球...

即将过境

高度历史

Altitude vs Time

uPlot chart will show altitude changes over time

两行轨道根数

1 46758U 20074V 25353.33335648 .00153018 00000-0 31521-2 0 9998
2 46758 53.0536 313.6855 0012483 58.7970 206.6057 15.44817580 5889
Epoch: Dec 19, 2025 • Age: 4 hours

当前状态

高度 433.1 km
速度 7.65 km/s
星下点 18.77°N, 153.03°W
发射日期 Oct 24, 2020
运行时间 5.1 years
类型 internet

技术详情

分类 Payload
质量 260.00 kg
干质量 248.00 kg
总质量 260.00 kg
长度 0.20 m
直径 2.80 m
跨度 9.00 m
形状 Box + pan
制造商 SPXS
平台类型 Starlink
阶段状态 In Orbit
所有者/国家 SPXS/US

大型星座

Loading constellations...